Home > Time Zones > World Clock > Weather > China > Sian > Past weeks

Flag for China Weather past 2 weeks in Sian, Shaanxi, China

Now
73 °F

Fog.


Feels Like: 74 °F
Forecast: 70 / 90 °F
Wind: 3 mph from Southwest

Location: Xian/Xianyang

Current Time: Aug 22, 2014 at 12:35:25 AM

Latest Report: Aug 22, 2014 at 12:00 AM


Visibility: 2 mi

Pressure: 29.83 "Hg

Humidity: 78%

Dew point: 66 °F

Location of SianLocation

Historic Weather in Sian — Graph

°F

Sian temperature yesterday

Maximum temperature yesterday: 86 °F (at 2:00 PM)
Minimum temperature yesterday: 70 °F (at 2:00 AM)
Average temperature yesterday: 78 °F

Past Weeks' High & Low Weather Summary

 TemperatureHumidityPressure
High90 °F (Aug 19, 5:00 PM)100% (Aug 8, 12:00 AM)30.01 "Hg (Aug 8, 12:00 AM)
Low59 °F (Aug 10, 6:00 AM)31% (Aug 14, 5:00 PM)29.68 "Hg (Aug 11, 6:00 PM)
Average72 °F77%29.84 "Hg
* Reported Aug 6 11:00 PM — Aug 21 11:00 PM, Sian, Weather by CustomWeather, © 2014

Note: Actual official high and low records may vary slightly from our data, if they occured in-between our weather recording intervals... More about our weather records

Advertising

Sian weather history for previous 24 hours

 ConditionsComfort  
Time TempWeatherWind HumidityBarometerVisibility
11:00 PM
Aug 21
75 °FFog.3 mph74%29.83 "Hg2 mi
10:00 PM77 °FPassing clouds.6 mph69%29.83 "Hg2 mi
9:00 PM77 °FFog.6 mph69%29.80 "Hg2 mi
8:00 PM77 °FFog.3 mph79%29.80 "Hg2 mi
7:00 PM81 °FHaze.3 mph66%29.77 "Hg2 mi
6:00 PM82 °FHaze.6 mph66%29.77 "Hg2 mi
5:00 PM84 °FClear.3 mph55%29.77 "Hg4 mi
4:00 PM86 °FClear.1 mph52%29.77 "Hg4 mi
3:00 PM86 °FClear.1 mph52%29.77 "Hg4 mi
2:00 PM86 °FClear.1 mph52%29.80 "Hg4 mi
1:00 PM84 °FHaze.3 mph51%29.80 "Hg3 mi
12:00 PM82 °FHaze.3 mph58%29.80 "Hg3 mi
11:00 AM82 °FHaze.6 mph55%29.83 "Hg3 mi
10:00 AM81 °FHaze.8 mph58%29.83 "Hg3 mi
9:00 AM79 °FHaze.8 mph61%29.83 "Hg3 mi
8:00 AM75 °FHaze.6 mph65%29.83 "Hg2 mi
7:00 AM70 °FFog.6 mph83%29.80 "Hg2 mi
6:00 AM70 °FFog.3 mph78%29.80 "Hg2 mi
5:00 AM72 °FClear.3 mph73%29.80 "Hg4 mi
4:00 AM72 °FClear.3 mph73%29.77 "Hg4 mi
3:00 AM72 °FClear.3 mph69%29.80 "Hg4 mi
2:00 AM70 °FClear.3 mph78%29.80 "Hg4 mi
1:00 AM72 °FClear.6 mph78%29.80 "Hg4 mi
12:00 AM73 °FClear.6 mph74%29.80 "Hg4 mi
Weather by CustomWeather, © 2014

See weather overviewHow to use our weather pages